Location: G�rna Wie?
(50.1650°N, 19.9372°E)
Time: 01:27:40
(UTC+00:00)

Daily predictions for brighter satellites

Satellite Brightness Start Highest point End
(mag) Time Altitude Azimuth Time Altitude Azimuth Time Altitude Azimuth
STARLINK-1212 2.7 00:00:53 10° WNW 00:03:59 72° SSW 00:07:05 10° ESE
STARLINK-1105 2.7 00:01:22 10° WNW 00:04:27 71° SSW 00:07:32 10° ESE
STARLINK-1209 2.9 00:01:37 10° WNW 00:04:43 54° SSW 00:06:55 17° SE
STARLINK-1247 2.7 00:02:16 10° WNW 00:05:23 70° SSW 00:08:30 10° ESE
ATLAS CENTAUR R/B 1.5 00:03:25 10° NW 00:05:48 76° NE 00:10:40 10° ESE
STARLINK-1227 2.7 00:02:44 10° WNW 00:05:49 70° SSW 00:08:54 10° ESE
STARLINK-1208 3.8 00:01:45 10° WNW 00:05:55 75° NNE 00:10:03 10° ESE
STARLINK-1226 2.7 00:03:35 10° WNW 00:06:41 69° SSW 00:09:47 10° ESE
STARLINK-52 4.1 00:07:16 27° SSE 00:07:22 27° SE 00:10:08 10° E
STARLINK-1215 2.7 00:04:31 10° WNW 00:07:38 68° SSW 00:10:45 10° ESE
STARLINK-1225 4.3 00:03:54 10° W 00:08:00 57° N 00:12:06 10° E
CZ-4C R/B 4.3 00:07:01 10° SE 00:09:07 12° ESE 00:11:22 10° E
STARLINK-1217 2.7 00:06:17 10° WNW 00:09:24 66° SSW 00:12:29 10° ESE
GEOS 3 Rocket 4.3 00:07:39 25° SSW 00:09:45 35° WSW 00:14:35 10° NW
STARLINK-1229 2.7 00:07:13 10° WNW 00:10:19 65° SSW 00:13:25 10° SE
STARLINK-1271 3.7 00:06:45 10° WNW 00:10:55 78° NNE 00:15:04 10° ESE
STARLINK-1270 2.7 00:08:05 10° WNW 00:11:11 65° SSW 00:14:17 10° SE
Cosmos 2058 Rocket 3.6 00:07:40 10° NNW 00:11:51 43° W 00:13:46 27° SSW
Meteor 1-29 4.1 00:09:11 10° N 00:12:16 32° WNW 00:13:32 24° WSW
SL-08 ROCKET BODY 4.4 00:08:22 21° S 00:12:25 74° E 00:18:17 10° NNE
Lacrosse 4 Rocket 4.1 00:08:57 10° NNW 00:12:28 23° NE 00:15:54 10° E
STARLINK-1230 4.3 00:08:53 10° WNW 00:12:59 57° N 00:17:05 10° E
STARLINK-1189 2.7 00:09:55 10° WNW 00:13:01 63° SSW 00:16:06 10° SE
STARLINK-1188 2.8 00:10:48 10° WNW 00:13:54 62° SSW 00:16:59 10° SE
Cosmos 2228 4.5 00:10:50 10° NW 00:14:10 23° W 00:15:32 19° WSW
STARLINK-1235 2.9 00:11:31 10° WNW 00:14:33 50° SSW 00:17:33 10° SE
STARLINK-1187 2.8 00:11:56 10° WNW 00:14:58 55° SSW 00:18:01 10° SE
COSMOS 2455 3.0 00:11:40 21° SW 00:15:48 74° NW 00:21:53 10° NE
STARLINK-1154 3.7 00:11:44 10° WNW 00:15:54 81° NNE 00:20:03 10° ESE
SJ 16-02 2.3 00:11:56 10° NNW 00:16:15 47° ENE 00:20:32 10° SE
STARLINK-1191 2.8 00:13:17 10° WNW 00:16:21 59° SSW 00:19:24 10° SE
STARLINK-1221 2.8 00:14:09 10° WNW 00:17:13 59° SSW 00:20:17 10° SE
Cosmos 2084 4.4 00:15:46 24° S 00:17:53 38° ESE 00:22:02 10° ENE
STARLINK-1243 4.3 00:13:53 10° WNW 00:17:59 57° N 00:22:05 10° E
STARLINK-1222 2.8 00:15:03 10° WNW 00:18:07 58° SSW 00:21:09 10° SE
Starlink 7 placeholder 2.6 00:19:27 42° E 00:19:27 42° E 00:20:56 10° ENE
STARLINK-1214 2.8 00:15:58 10° WNW 00:19:01 57° SSW 00:22:04 10° SE
Meteor 2-10 Rocket 4.1 00:13:57 10° N 00:19:17 57° ENE 00:24:22 10° SSE
SL-14 R/B 3.6 00:18:39 28° SW 00:20:22 50° WNW 00:24:09 10° N
STARLINK-1197 3.6 00:16:43 10° WNW 00:20:52 84° NNE 00:25:02 10° ESE
Cosmos 1386 Rocket 4.5 00:18:10 20° S 00:22:30 84° E 00:28:41 10° N
STARLINK-1236 4.3 00:18:53 10° WNW 00:22:59 57° N 00:27:05 10° E
Cosmos 1300 3.4 00:20:04 10° NNW 00:23:39 38° W 00:25:04 27° SW
Okean 1-7 Rocket 4.2 00:22:03 24° SW 00:24:23 44° WNW 00:28:43 10° N
Cosmos 1174 4.0 00:23:33 24° WSW 00:25:14 51° NW 00:28:58 10° NNE
STARLINK-1198 3.6 00:21:40 10° WNW 00:25:50 88° NNE 00:29:59 10° ESE
Cosmos 921 Rocket 2.9 00:23:34 26° SSW 00:25:53 84° WNW 00:30:14 10° NNE
BREEZE M DEB (TANK) 2.2 00:26:49 33° WSW 00:27:34 47° SSW 00:31:18 10° ESE
STARLINK-1199 3.5 00:26:41 10° WNW 00:30:51 89° S 00:35:00 10° ESE
Cosmos 1626 Rocket 3.5 00:29:36 24° SSW 00:32:10 79° WNW 00:36:31 10° N
STARLINK-1269 4.2 00:28:51 10° WNW 00:32:57 59° N 00:37:04 10° E
Cosmos 2219 3.1 00:27:27 10° NNW 00:33:10 81° WSW 00:38:47 10° SSE
STARLINK-1210 3.5 00:31:39 10° WNW 00:35:48 85° SSW 00:39:58 10° ESE
Cosmos 1626 3.3 00:34:31 21° WSW 00:36:14 31° WNW 00:39:37 10° N
STARLINK-1200 4.2 00:33:51 10° WNW 00:37:59 59° N 00:42:05 10° E
STARLINK-60 2.8 00:36:26 25° WSW 00:38:11 83° SSE 00:41:24 10° ENE
Cosmos 1980 Rocket 4.5 00:35:15 10° SE 00:38:11 15° E 00:41:09 10° ENE
STARLINK-1219 3.5 00:36:38 10° WNW 00:40:47 81° SSW 00:44:56 10° ESE
Nadezhda 1 Rocket 4.2 00:35:07 10° NNW 00:41:07 56° W 00:45:52 17° SSW
STARLINK-1192 4.2 00:38:51 10° WNW 00:42:58 60° N 00:47:05 10° E
FALCON 9 R/B 4.2 00:38:25 17° SW 00:44:08 36° SSE 01:05:29 10° ESE
STARLINK-1211 3.5 00:41:36 10° WNW 00:45:45 78° SSW 00:49:53 10° ESE
MOZ.5/SAFIR/RUBIN 5/SL-8 4.4 00:44:16 20° SSW 00:46:55 38° W 00:51:15 10° NNW
UNK 4.0 00:44:01 19° SSW 00:47:07 49° W 00:51:36 10° NNW
STARLINK-1244 4.2 00:43:49 10° WNW 00:47:57 62° N 00:52:04 10° E
Cosmos 2297 Rocket 2.1 00:43:08 10° NNW 00:48:49 77° WSW 00:54:27 10° SSE
Cosmos 220 Rocket 4.1 00:46:16 21° SW 00:49:11 70° WNW 00:53:38 10° NNE
AQUA 3.9 00:44:43 10° NNE 00:49:31 81° ESE 00:53:18 16° S
STARLINK-1245 3.5 00:46:36 10° WNW 00:50:44 74° SSW 00:54:52 10° ESE
CZ-4B R/B 3.6 00:45:51 10° NNE 00:51:00 86° ESE 00:55:16 16° SSW
Cosmos 1812 Rocket 3.7 00:46:43 10° NNW 00:51:08 57° W 00:54:30 16° S
ERS-2 4.0 00:48:01 10° SE 00:51:17 31° ENE 00:54:36 10° N
STARLINK-1356 4.5 00:50:13 18° S 00:51:18 22° SE 00:53:48 10° E
STARLINK-1345 4.5 00:50:33 18° S 00:51:39 22° SE 00:54:09 10° E
STARLINK-1355 4.5 00:50:51 18° S 00:51:58 22° SE 00:54:30 10° E
STARLINK-1321 4.5 00:51:10 18° S 00:52:18 22° SE 00:54:49 10° E
Cosmos 2082 4.1 00:46:45 10° NNW 00:52:25 66° ENE 00:58:01 10° SE
STARLINK-1358 4.5 00:51:31 18° S 00:52:39 23° SE 00:55:11 10° E
STARLINK-1138 4.1 00:48:49 10° WNW 00:52:57 63° N 00:57:03 10° E
STARLINK-1332 4.5 00:51:50 18° S 00:52:58 23° SE 00:55:30 10° E
STARLINK-1348 4.4 00:52:10 18° S 00:53:20 23° SE 00:55:51 10° E
SL-4 R/B 2.3 00:49:12 14° WSW 00:53:25 80° SSE 00:58:05 10° ENE
STARLINK-1330 4.4 00:52:29 18° S 00:53:38 23° SE 00:56:11 10° E
STARLINK-1363 4.4 00:52:48 18° S 00:53:59 23° SE 00:56:31 10° E
Cosmos 1437 4.0 00:52:48 19° WSW 00:54:07 26° WNW 00:56:44 10° N
STARLINK-1337 4.4 00:53:07 18° S 00:54:19 23° SE 00:56:52 10° E
STARLINK-1342 4.4 00:53:27 18° S 00:54:39 23° SE 00:57:13 10° E
STARLINK-1364 4.4 00:53:47 18° S 00:55:00 23° SE 00:57:34 10° E
STARLINK-1376 4.4 00:54:07 19° S 00:55:20 24° SE 00:57:55 10° E
STARLINK-1203 4.1 00:51:25 10° WNW 00:55:35 64° N 00:59:46 10° E
STARLINK-1360 4.4 00:54:22 19° S 00:55:37 24° SE 00:58:11 10° E
STARLINK-1233 3.5 00:51:34 10° WNW 00:55:42 70° SSW 00:59:49 10° SE
STARLINK-1361 4.4 00:54:48 19° S 00:56:02 24° SE 00:58:38 10° E
STARLINK-1367 4.4 00:55:02 19° S 00:56:19 24° SE 00:58:57 10° E
Cosmos 990 Rocket 4.0 00:51:14 10° NNW 00:56:32 85° WSW 01:01:47 10° SSE
STARLINK-1366 4.4 00:55:25 19° S 00:56:41 24° SE 00:59:17 10° E
CBERS-1 4.2 00:52:17 10° NNE 00:57:25 69° ESE 01:02:06 12° S
STARLINK-1143 4.1 00:53:48 10° WNW 00:57:56 64° NNE 01:02:04 10° E
ATLAS CENTAUR R/B 2.4 00:56:56 12° WSW 01:00:40 39° NW 01:04:30 10° NNE
STARLINK-1204 3.5 00:56:34 10° WNW 01:00:41 66° SSW 01:04:47 10° SE
SL-16 R/B 3.0 00:56:01 14° SSW 01:00:57 44° W 01:06:51 10° NNW
STARLINK-1375 4.5 00:59:43 18° S 01:01:31 27° SE 01:04:32 10° E
Alouette 2 Rocket 4.2 00:55:24 10° NNW 01:02:23 74° W 01:06:54 10° S
STARLINK-1241 4.0 00:58:47 10° WNW 01:02:55 66° NNE 01:07:03 10° E
STARLINK-1350 4.4 01:01:59 17° S 01:03:52 28° SE 01:06:54 10° E
NOSS 3-4 (A) 4.4 00:58:17 10° WSW 01:04:04 43° NNW 01:10:20 10° NE
BREEZE-M R/B 2.9 01:01:07 16° SW 01:04:08 45° SSE 01:06:48 10° E
NOSS 3-4 (C) 4.4 00:58:22 10° WSW 01:04:09 44° NNW 01:10:27 10° NE
FALCON 9 DEB 3.4 01:02:07 20° SW 01:04:17 52° SSE 01:07:40 10° ENE
Cosmos 1602 Rocket 4.0 01:01:58 18° SW 01:05:00 48° WNW 01:09:12 10° N
Cosmos 1825 Rocket 3.7 01:01:14 12° S 01:05:08 72° E 01:09:28 10° NNE
STARLINK-1238 3.6 01:01:31 10° WNW 01:05:38 62° SSW 01:09:42 10° SE
STARLINK-1352 4.4 01:04:09 17° SSW 01:06:08 29° SE 01:09:15 10° E
Cosmos 1455 2.2 01:02:25 10° NNW 01:06:09 60° W 01:09:23 13° S
STARLINK-29 2.8 01:04:34 18° WSW 01:06:50 77° SSE 01:10:02 10° ENE
ATLAS 3B R/B 3.7 01:02:33 10° WNW 01:07:52 25° WSW 01:12:42 12° SSW
STARLINK-1239 4.0 01:03:46 10° WNW 01:07:55 68° NNE 01:12:03 10° E
STARLINK-1368 4.3 01:06:14 17° SSW 01:08:18 30° SE 01:11:26 10° E
IRS-1D 3.7 01:04:51 10° NNE 01:10:15 86° ESE 01:15:16 11° SSW
BREEZE-M DEB (TANK) 3.1 01:09:30 19° S 01:10:17 24° SSE 01:12:35 10° E
STARLINK-1369 4.3 01:08:12 17° SSW 01:10:18 31° SE 01:13:27 10° E
STARLINK-1201 3.6 01:06:32 10° WNW 01:10:37 58° SSW 01:14:40 10° SE
Meteor 1-28 Rocket 4.3 01:07:03 10° SE 01:10:40 46° ENE 01:14:19 10° N
GP-B 3.1 01:07:37 10° N 01:12:03 69° W 01:16:11 12° SSW
STARLINK-1372 4.2 01:10:25 16° SSW 01:12:38 32° SE 01:15:49 10° E
STARLINK-1240 3.9 01:08:45 10° WNW 01:12:55 70° NNE 01:17:03 10° E
STARLINK-1378 4.2 01:12:32 16° SSW 01:14:49 34° SE 01:18:03 10° E
BREEZE-M DEB (TANK) 0.9 01:12:38 11° W 01:14:55 78° S 01:17:27 10° E
STARLINK-1329 4.2 01:12:59 16° SSW 01:15:18 34° SE 01:18:33 10° ENE
STARLINK-1206 3.7 01:11:30 10° WNW 01:15:35 55° SSW 01:19:38 10° SE
Cosmos-2242 3.0 01:11:30 10° NNW 01:15:46 70° W 01:19:59 10° S
STARLINK-1365 4.1 01:13:46 16° SSW 01:16:07 35° SE 01:19:24 10° ENE
COBE Rocket 4.5 01:11:25 10° SSE 01:16:16 63° ENE 01:21:18 10° N
STARLINK-1379 4.1 01:14:39 16° SSW 01:17:01 35° SE 01:20:17 10° ENE
Cosmos 2221 4.5 01:13:41 10° N 01:17:33 31° ENE 01:21:24 10° SE
STARLINK-1362 4.1 01:15:10 16° SSW 01:17:34 35° SE 01:20:51 10° ENE
STARLINK-1216 3.9 01:13:44 10° WNW 01:17:54 72° NNE 01:22:02 10° E
Cosmos 1400 Rocket 3.5 01:14:02 10° N 01:18:07 59° ENE 01:22:11 10° SSE
STARLINK-1373 4.1 01:17:22 15° SSW 01:19:50 36° SE 01:23:09 10° ENE
STARLINK-1205 3.7 01:16:30 10° WNW 01:20:32 51° SSW 01:24:34 10° SE
STARLINK-1390 4.0 01:19:27 15° SSW 01:22:00 37° SE 01:25:19 10° ENE
SL-08 R/B 3.2 01:17:33 10° SSE 01:22:16 84° WSW 01:26:57 10° NNW
Cosmos 2181 Rocket 4.1 01:15:56 10° NNW 01:22:18 69° W 01:28:41 10° S
STARLINK-1237 3.9 01:18:44 10° WNW 01:22:53 74° NNE 01:27:02 10° ESE
RESURS DK-1 3.7 01:19:17 10° WSW 01:22:54 31° NW 01:26:38 10° NNE
Cosmos 2227 Rocket 2.4 01:18:50 10° NW 01:24:18 49° WSW 01:29:44 10° S
IRS-P3 4.2 01:19:41 10° NNE 01:25:04 83° ESE 01:30:24 10° SSW
STARLINK-1218 3.8 01:21:29 10° WNW 01:25:29 48° SSW 01:29:29 10° SE
CZ-2D R/B 2.8 01:20:42 10° N 01:25:38 41° WNW 01:30:15 11° SW
STARLINK-1202 3.8 01:23:43 10° WNW 01:27:53 77° NNE 01:32:02 10° ESE
CZ-4C R/B 4.3 01:24:28 10° SE 01:27:55 45° ENE 01:31:25 10° N
ADEOS II 2.1 01:23:13 10° NNE 01:28:32 86° WNW 01:33:47 10° SSW
Cosmos 1763 Rocket 3.5 01:23:45 11° SSW 01:28:42 86° ESE 01:33:49 10° NNE
Cosmos 1697 Rocket 3.1 01:23:26 10° SSW 01:29:00 61° ESE 01:34:36 10° NE
STARLINK-1254 3.9 01:26:29 10° WNW 01:30:28 45° SSW 01:34:25 10° SE
Cosmos 1703 3.3 01:26:47 11° SSW 01:30:31 66° WNW 01:34:28 10° N
ATLAS 2AS CENTAUR R/B 4.1 01:26:01 10° W 01:33:30 41° NNW 01:40:47 10° NE
Resurs 1-4 Rocket 3.1 01:30:34 10° N 01:35:19 35° WNW 01:40:03 10° SW
STARLINK-1231 4.0 01:31:30 10° WNW 01:35:26 42° SW 01:39:21 10° SE
STARLINK-1246 3.7 01:33:40 10° WNW 01:37:50 83° NNE 01:42:00 10° ESE
Cosmos 1315 Rocket 4.5 01:34:21 10° N 01:38:00 36° ENE 01:41:38 10° SE
STARLINK-1232 4.0 01:36:30 10° WNW 01:40:23 39° SW 01:44:15 10° SSE
CZ-2C R/B 4.2 01:37:17 10° NNE 01:40:40 33° E 01:44:03 10° SSE
ARIANE 5 R/B 2.6 01:35:34 10° NNE 01:40:41 79° ESE 01:45:42 10° SSW
STARLINK-1224 3.7 01:38:39 10° WNW 01:42:49 86° NNE 01:46:59 10° ESE
STARLINK-52 3.1 01:40:05 10° WSW 01:43:17 75° NNW 01:46:31 10° ENE
Cosmos 1758 Rocket 4.2 01:39:23 10° SW 01:43:26 41° WNW 01:47:35 10° N
H-2A R/B 2.1 01:40:39 10° SSE 01:44:58 89° NE 01:49:25 10° NNW
STARLINK-1208 4.1 01:41:29 10° WNW 01:45:19 37° SW 01:49:08 10° SSE
Spot 4 Rocket 4.4 01:41:15 10° NNE 01:46:24 66° ESE 01:51:30 10° S
Meteor 1-27 4.2 01:41:08 10° NNW 01:46:45 89° WSW 01:52:19 10° S
STARLINK-1225 3.6 01:43:39 10° WNW 01:47:49 90° NNE 01:51:58 10° ESE
Cosmos 1898 Rocket 4.2 01:44:22 10° NW 01:49:11 35° WSW 01:53:57 10° SSW
STARLINK-1271 4.2 01:46:31 10° WNW 01:50:17 34° SW 01:54:03 10° SSE
Cosmos 2298 Rocket 4.3 01:46:03 10° NNW 01:51:23 78° ENE 01:56:42 10° SSE
Lacrosse 4 Rocket 1.4 01:47:16 10° NW 01:51:37 69° WSW 01:55:50 10° SSE
STARLINK-1230 3.6 01:48:37 10° WNW 01:52:47 87° SSW 01:56:56 10° ESE
Starlink 7 placeholder 3.4 01:51:00 10° WNW 01:52:50 32° N 01:54:43 10° ENE
IDEFIX/ARIANE 42P 3.2 01:48:50 10° NNE 01:54:03 57° E 01:59:13 10° S
Cosmos 1656 4.0 01:48:39 10° SW 01:54:14 57° NW 01:59:48 10° NNE
SJ 16-02 2.7 01:51:06 10° NW 01:54:32 22° W 01:57:58 10° SSW
Cosmos 2285 Rocket 4.2 01:48:37 10° NNW 01:54:47 52° WSW 02:00:53 10° S
STARLINK-1154 4.3 01:51:32 10° WNW 01:55:14 32° SW 01:58:56 10° SSE
CZ-4C R/B 2.3 01:51:11 10° SSW 01:56:13 71° SE 02:02:18 10° NE
Cosmos 2084 4.4 01:53:07 10° WSW 01:57:23 43° NW 02:01:41 10° NE
Cosmos 468 Rocket 4.4 01:52:46 10° SW 01:57:45 50° WNW 02:02:46 10° NNE
STARLINK-1243 3.6 01:53:36 10° WNW 01:57:46 83° SSW 02:01:55 10° ESE
Cosmos 1570 Rocket 4.1 01:53:54 10° SSW 01:59:14 84° WNW 02:04:35 10° NNE
Cosmos 1937 Rocket 4.1 01:54:40 10° NW 01:59:30 38° WSW 02:04:20 10° S
Cosmos 1953 Rocket 4.0 01:55:22 10° SSW 01:59:42 49° WNW 02:04:02 10° N
STARLINK-1197 4.4 01:56:33 10° W 02:00:11 30° SW 02:03:49 10° SSE
Cosmos 2208 Rocket 4.1 01:56:52 10° SSW 02:02:06 87° ESE 02:07:28 10° NNE
Cosmos 2369 3.8 01:56:45 10° SSW 02:02:24 85° WNW 02:08:07 10° NNE
